Time,TemperatureF,DewpointF,PressureIn,WindDirection,WindDirectionDegrees,WindSpeedMPH,WindSpeedGustMPH,Humidity,HourlyPrecipIn,Conditions,Clouds,dailyrainin,SoftwareType,DateUTC
2013-07-15 00:01:00,71.6,71.3,30.13,WNW,292,0.0,-999.0,99,-99.99,,,0.00,Acu-Link.com,2013-07-15 04:01:00,
2013-07-15 00:16:00,71.6,71.3,30.14,West,270,0.0,-999.0,99,-99.99,,,0.00,Acu-Link.com,2013-07-15 04:16:00,
2013-07-15 00:31:00,71.6,71.3,30.14,West,270,0.0,-999.0,99,-99.99,,,0.00,Acu-Link.com,2013-07-15 04:31:00,
2013-07-15 00:46:00,71.4,71.1,30.15,West,270,0.0,-999.0,99,-99.99,,,0.00,Acu-Link.com,2013-07-15 04:46:00,
2013-07-15 01:02:00,71.2,70.9,30.14,West,270,0.0,-999.0,99,-99.99,,,0.00,Acu-Link.com,2013-07-15 05:02:00,
2013-07-15 01:17:00,71.2,70.9,30.15,West,270,0.0,-999.0,99,-99.99,,,0.00,Acu-Link.com,2013-07-15 05:17:00,
2013-07-15 01:33:00,71.2,70.9,30.14,West,270,0.0,-999.0,99,-99.99,,,0.00,Acu-Link.com,2013-07-15 05:33:00,
2013-07-15 01:48:00,71.1,70.8,30.15,West,270,0.0,-999.0,99,-99.99,,,0.00,Acu-Link.com,2013-07-15 05:48:00,
2013-07-15 02:03:00,71.1,70.8,30.15,West,270,0.0,-999.0,99,-99.99,,,0.00,Acu-Link.com,2013-07-15 06:03:00,
2013-07-15 02:19:00,71.1,70.8,30.15,West,270,0.0,-999.0,99,-99.99,,,0.00,Acu-Link.com,2013-07-15 06:19:00,
2013-07-15 02:34:00,70.9,70.6,30.15,SW,225,0.0,-999.0,99,-99.99,,,0.00,Acu-Link.com,2013-07-15 06:34:00,
2013-07-15 02:49:00,70.9,70.6,30.15,NW,315,0.0,-999.0,99,-99.99,,,0.00,Acu-Link.com,2013-07-15 06:49:00,
2013-07-15 03:05:00,70.9,70.6,30.15,NW,315,0.0,-999.0,99,-99.99,,,0.00,Acu-Link.com,2013-07-15 07:05:00,
2013-07-15 03:20:00,70.9,70.6,30.15,NW,315,0.0,-999.0,99,-99.99,,,0.00,Acu-Link.com,2013-07-15 07:20:00,
2013-07-15 03:35:00,70.9,70.6,30.15,WNW,292,0.0,-999.0,99,-99.99,,,0.00,Acu-Link.com,2013-07-15 07:35:00,
2013-07-15 03:50:00,70.9,70.6,30.15,WNW,292,0.0,-999.0,99,-99.99,,,0.00,Acu-Link.com,2013-07-15 07:50:00,
2013-07-15 04:06:00,70.9,70.6,30.15,NE,45,0.0,-999.0,99,-99.99,,,0.00,Acu-Link.com,2013-07-15 08:06:00,
2013-07-15 04:21:00,70.9,70.6,30.15,SSW,202,0.0,-999.0,99,-99.99,,,0.00,Acu-Link.com,2013-07-15 08:21:00,
2013-07-15 04:36:00,70.9,70.6,30.15,SSW,202,0.0,-999.0,99,-99.99,,,0.00,Acu-Link.com,2013-07-15 08:36:00,
2013-07-15 04:51:00,70.9,70.6,30.15,West,270,0.0,-999.0,99,-99.99,,,0.00,Acu-Link.com,2013-07-15 08:51:00,
2013-07-15 05:06:00,70.7,70.4,30.15,West,270,0.0,-999.0,99,-99.99,,,0.00,Acu-Link.com,2013-07-15 09:06:00,
2013-07-15 05:21:00,70.7,70.4,30.15,West,270,0.0,-999.0,99,-99.99,,,0.00,Acu-Link.com,2013-07-15 09:21:00,
2013-07-15 05:36:00,70.9,70.6,30.16,WNW,292,3.2,-999.0,99,-99.99,,,0.00,Acu-Link.com,2013-07-15 09:36:00,
2013-07-15 05:52:00,71.4,71.1,30.16,WSW,247,0.0,-999.0,99,-99.99,,,0.00,Acu-Link.com,2013-07-15 09:52:00,
2013-07-15 06:07:00,71.4,71.1,30.16,NNW,337,0.0,-999.0,99,-99.99,,,0.00,Acu-Link.com,2013-07-15 10:07:00,
2013-07-15 06:22:00,71.6,71.3,30.17,East,90,0.0,-999.0,99,-99.99,,,0.00,Acu-Link.com,2013-07-15 10:22:00,
2013-07-15 06:38:00,71.6,71.3,30.17,WNW,292,0.0,-999.0,99,-99.99,,,0.00,Acu-Link.com,2013-07-15 10:38:00,
2013-07-15 06:53:00,71.6,71.3,30.17,South,180,0.0,-999.0,99,-99.99,,,0.00,Acu-Link.com,2013-07-15 10:53:00,
2013-07-15 07:08:00,71.8,71.5,30.18,South,180,0.0,-999.0,99,-99.99,,,0.00,Acu-Link.com,2013-07-15 11:08:00,
2013-07-15 07:24:00,72.0,71.7,30.18,South,180,0.0,-999.0,99,-99.99,,,0.00,Acu-Link.com,2013-07-15 11:24:00,
2013-07-15 07:39:00,72.1,71.8,30.18,NNW,337,0.0,-999.0,99,-99.99,,,0.00,Acu-Link.com,2013-07-15 11:39:00,
2013-07-15 07:54:00,72.5,72.2,30.19,NNW,337,0.0,-999.0,99,-99.99,,,0.00,Acu-Link.com,2013-07-15 11:54:00,
2013-07-15 08:10:00,73.0,72.7,30.18,West,270,0.0,-999.0,99,-99.99,,,0.00,Acu-Link.com,2013-07-15 12:10:00,
2013-07-15 08:25:00,73.2,72.9,30.18,SW,225,0.0,-999.0,99,-99.99,,,0.00,Acu-Link.com,2013-07-15 12:25:00,
2013-07-15 08:40:00,73.6,73.3,30.18,NW,315,0.0,-999.0,99,-99.99,,,0.00,Acu-Link.com,2013-07-15 12:40:00,
2013-07-15 08:55:00,73.9,73.6,30.19,SSE,157,0.0,-999.0,99,-99.99,,,0.00,Acu-Link.com,2013-07-15 12:55:00,
2013-07-15 09:10:00,74.1,73.8,30.19,WNW,292,0.0,-999.0,99,-99.99,,,0.00,Acu-Link.com,2013-07-15 13:10:00,
2013-07-15 09:26:00,74.7,74.4,30.19,SSW,202,0.0,-999.0,99,-99.99,,,0.00,Acu-Link.com,2013-07-15 13:26:00,
2013-07-15 09:41:00,75.2,74.0,30.19,East,90,1.7,-999.0,96,-99.99,,,0.00,Acu-Link.com,2013-07-15 13:41:00,
2013-07-15 09:56:00,75.7,74.2,30.19,East,90,0.0,-999.0,95,-99.99,,,0.00,Acu-Link.com,2013-07-15 13:56:00,
2013-07-15 10:12:00,76.1,74.2,30.19,NE,45,0.0,-999.0,94,-99.99,,,0.00,Acu-Link.com,2013-07-15 14:12:00,
2013-07-15 10:27:00,76.6,73.8,30.19,NNE,22,0.0,-999.0,91,-99.99,,,0.00,Acu-Link.com,2013-07-15 14:27:00,
2013-07-15 10:42:00,77.0,73.5,30.20,South,180,2.2,-999.0,89,-99.99,,,0.00,Acu-Link.com,2013-07-15 14:42:00,
2013-07-15 10:58:00,77.4,74.9,30.20,SSE,157,0.0,-999.0,92,-99.99,,,0.00,Acu-Link.com,2013-07-15 14:58:00,
2013-07-15 11:13:00,77.9,74.0,30.20,SSW,202,1.7,-999.0,88,-99.99,,,0.00,Acu-Link.com,2013-07-15 15:13:00,
2013-07-15 11:29:00,79.0,74.8,30.21,ESE,112,2.7,-999.0,87,-99.99,,,0.00,Acu-Link.com,2013-07-15 15:29:00,
2013-07-15 11:44:00,78.6,74.4,30.21,SSE,157,0.0,-999.0,87,-99.99,,,0.00,Acu-Link.com,2013-07-15 15:44:00,
2013-07-15 11:59:00,79.7,74.8,30.21,ESE,112,0.0,-999.0,85,-99.99,,,0.00,Acu-Link.com,2013-07-15 15:59:00,
2013-07-15 12:15:00,80.2,75.3,30.20,NW,315,1.1,-999.0,85,-99.99,,,0.00,Acu-Link.com,2013-07-15 16:15:00,
2013-07-15 13:00:00,80.4,74.0,30.18,ESE,112,1.1,-999.0,81,-99.99,,,0.00,Acu-Link.com,2013-07-15 17:00:00,
2013-07-15 13:16:00,82.6,75.4,30.18,South,180,0.0,-999.0,79,-99.99,,,0.00,Acu-Link.com,2013-07-15 17:16:00,
2013-07-15 13:31:00,84.6,74.6,30.17,SSE,157,0.0,-999.0,72,-99.99,,,0.00,Acu-Link.com,2013-07-15 17:31:00,
2013-07-15 13:46:00,84.7,74.6,30.17,NW,315,2.2,-999.0,72,-99.99,,,0.00,Acu-Link.com,2013-07-15 17:46:00,
2013-07-15 14:01:00,82.9,73.7,30.17,SSW,202,0.0,-999.0,74,-99.99,,,0.00,Acu-Link.com,2013-07-15 18:01:00,
2013-07-15 14:16:00,83.8,75.0,30.16,SSW,202,0.0,-999.0,75,-99.99,,,0.00,Acu-Link.com,2013-07-15 18:16:00,
2013-07-15 14:47:00,82.4,76.0,30.16,SSW,202,0.0,-999.0,81,-99.99,,,0.00,Acu-Link.com,2013-07-15 18:47:00,
2013-07-15 15:02:00,80.8,75.5,30.17,SW,225,0.0,-999.0,84,-99.99,,,0.00,Acu-Link.com,2013-07-15 19:02:00,
2013-07-15 15:18:00,79.0,75.5,30.15,SSW,202,0.0,-999.0,89,-99.99,,,0.02,Acu-Link.com,2013-07-15 19:18:00,
2013-07-15 15:33:00,79.2,77.3,30.14,SW,225,0.0,-999.0,94,-99.99,,,0.02,Acu-Link.com,2013-07-15 19:33:00,
2013-07-15 16:19:00,82.4,78.5,30.12,West,270,0.0,-999.0,88,-99.99,,,0.02,Acu-Link.com,2013-07-15 20:19:00,
2013-07-15 16:34:00,82.0,76.7,30.12,East,90,0.0,-999.0,84,-99.99,,,0.02,Acu-Link.com,2013-07-15 20:34:00,
2013-07-15 16:50:00,82.2,76.5,30.11,SSW,202,1.1,-999.0,83,-99.99,,,0.02,Acu-Link.com,2013-07-15 20:50:00,
2013-07-15 17:05:00,82.9,75.3,30.13,East,90,2.7,-999.0,78,-99.99,,,0.02,Acu-Link.com,2013-07-15 21:05:00,
2013-07-15 17:20:00,82.0,74.4,30.13,SW,225,0.0,-999.0,78,-99.99,,,0.02,Acu-Link.com,2013-07-15 21:20:00,
2013-07-15 17:36:00,81.9,75.1,30.12,West,270,0.0,-999.0,80,-99.99,,,0.02,Acu-Link.com,2013-07-15 21:36:00,
2013-07-15 17:51:00,82.0,75.6,30.11,West,270,0.0,-999.0,81,-99.99,,,0.02,Acu-Link.com,2013-07-15 21:51:00,
2013-07-15 18:06:00,81.0,75.0,30.11,SW,225,0.0,-999.0,82,-99.99,,,0.02,Acu-Link.com,2013-07-15 22:06:00,
2013-07-15 18:21:00,81.1,75.4,30.13,SSW,202,0.0,-999.0,83,-99.99,,,0.02,Acu-Link.com,2013-07-15 22:21:00,
2013-07-15 18:36:00,81.5,75.5,30.13,SSW,202,0.0,-999.0,82,-99.99,,,0.02,Acu-Link.com,2013-07-15 22:36:00,
2013-07-15 18:52:00,81.3,76.0,30.13,NNE,22,0.0,-999.0,84,-99.99,,,0.02,Acu-Link.com,2013-07-15 22:52:00,
2013-07-15 19:23:00,77.7,74.5,30.14,SE,135,0.0,-999.0,90,-99.99,,,0.02,Acu-Link.com,2013-07-15 23:23:00,
2013-07-15 19:38:00,77.0,74.5,30.13,West,270,0.0,-999.0,92,-99.99,,,0.02,Acu-Link.com,2013-07-15 23:38:00,
2013-07-15 19:53:00,76.5,74.6,30.13,NW,315,0.0,-999.0,94,-99.99,,,0.02,Acu-Link.com,2013-07-15 23:53:00,
2013-07-15 20:09:00,75.9,74.4,30.13,SSW,202,0.0,-999.0,95,-99.99,,,0.03,Acu-Link.com,2013-07-16 00:09:00,
2013-07-15 20:55:00,75.0,73.8,30.13,South,180,0.0,-999.0,96,-99.99,,,0.03,Acu-Link.com,2013-07-16 00:55:00,
2013-07-15 21:10:00,74.7,73.5,30.14,WSW,247,0.0,-999.0,96,-99.99,,,0.03,Acu-Link.com,2013-07-16 01:10:00,
2013-07-15 21:40:00,74.1,73.8,30.15,NW,315,0.0,-999.0,99,-99.99,,,0.03,Acu-Link.com,2013-07-16 01:40:00,
2013-07-15 21:56:00,74.1,73.8,30.14,East,90,0.0,-999.0,99,-99.99,,,0.03,Acu-Link.com,2013-07-16 01:56:00,
2013-07-15 22:11:00,73.9,73.6,30.15,West,270,0.0,-999.0,99,-99.99,,,0.03,Acu-Link.com,2013-07-16 02:11:00,
2013-07-15 22:26:00,73.8,73.2,30.16,West,270,0.0,-999.0,98,-99.99,,,0.03,Acu-Link.com,2013-07-16 02:26:00,
2013-07-15 22:41:00,73.6,73.0,30.16,South,180,0.0,-999.0,98,-99.99,,,0.03,Acu-Link.com,2013-07-16 02:41:00,
2013-07-15 22:57:00,73.4,72.8,30.17,WNW,292,0.0,-999.0,98,-99.99,,,0.03,Acu-Link.com,2013-07-16 02:57:00,
2013-07-15 23:43:00,72.9,72.6,30.18,SW,225,0.0,-999.0,99,-99.99,,,0.03,Acu-Link.com,2013-07-16 03:43:00,
2013-07-15 23:58:00,72.7,72.1,30.18,SSW,202,0.0,-999.0,98,-99.99,,,0.03,Acu-Link.com,2013-07-16 03:58:00,